Time,TemperatureF,DewpointF,PressureIn,WindDirection,WindDirectionDegrees,WindSpeedMPH,WindSpeedGustMPH,Humidity,HourlyPrecipIn,Conditions,Clouds,dailyrainin,SoftwareType,DateUTC
2013-08-21 00:02:00,76.5,55.9,29.91,SE,142,0.0,0.0,49,0.00,,,0.00,meteohub,2013-08-21 05:02:00,
2013-08-21 00:07:00,76.1,56.1,29.91,SE,142,0.0,0.0,50,0.00,,,0.00,meteohub,2013-08-21 05:07:00,
2013-08-21 00:12:00,75.7,55.8,29.91,SE,142,0.0,0.0,50,0.00,,,0.00,meteohub,2013-08-21 05:12:00,
2013-08-21 00:17:00,75.6,55.6,29.91,SE,142,0.0,0.0,50,0.00,,,0.00,meteohub,2013-08-21 05:17:00,
2013-08-21 00:22:00,75.4,55.4,29.92,SE,142,0.0,0.0,50,0.00,,,0.00,meteohub,2013-08-21 05:22:00,
2013-08-21 00:27:00,75.2,55.8,29.92,SE,142,0.0,0.0,51,0.00,,,0.00,meteohub,2013-08-21 05:27:00,
2013-08-21 00:32:00,75.0,55.6,29.92,SE,142,0.0,0.0,51,0.00,,,0.00,meteohub,2013-08-21 05:32:00,
2013-08-21 00:37:00,74.8,55.6,29.92,SE,142,0.0,0.0,51,0.00,,,0.00,meteohub,2013-08-21 05:37:00,
2013-08-21 00:42:00,74.7,55.9,29.92,SE,142,0.0,0.0,52,0.00,,,0.00,meteohub,2013-08-21 05:42:00,
2013-08-21 00:47:00,74.7,55.9,29.92,SE,142,0.0,0.0,52,0.00,,,0.00,meteohub,2013-08-21 05:47:00,
2013-08-21 00:52:00,74.5,55.8,29.92,SE,142,0.0,0.0,52,0.00,,,0.00,meteohub,2013-08-21 05:52:00,
2013-08-21 00:57:00,74.3,55.6,29.92,SE,142,0.0,0.0,52,0.00,,,0.00,meteohub,2013-08-21 05:57:00,
2013-08-21 01:02:00,74.5,55.8,29.93,SE,142,0.0,4.0,52,0.00,,,0.00,meteohub,2013-08-21 06:02:00,
2013-08-21 01:07:00,74.7,55.9,29.92,SE,142,0.0,4.0,52,0.00,,,0.00,meteohub,2013-08-21 06:07:00,
2013-08-21 01:12:00,74.7,55.9,29.93,SE,142,0.0,1.0,52,0.00,,,0.00,meteohub,2013-08-21 06:12:00,
2013-08-21 01:17:00,74.7,55.9,29.93,SE,142,0.0,1.0,52,0.00,,,0.00,meteohub,2013-08-21 06:17:00,
2013-08-21 01:23:00,74.7,55.9,29.93,SE,142,0.0,0.0,52,0.00,,,0.00,meteohub,2013-08-21 06:23:00,
2013-08-21 01:28:00,74.7,55.9,29.93,SE,142,0.0,0.0,52,0.00,,,0.00,meteohub,2013-08-21 06:28:00,
2013-08-21 01:33:00,74.8,56.1,29.93,SE,142,0.0,1.0,52,0.00,,,0.00,meteohub,2013-08-21 06:33:00,
2013-08-21 01:38:00,74.8,56.1,29.93,SE,142,0.0,1.0,52,0.00,,,0.00,meteohub,2013-08-21 06:38:00,
2013-08-21 01:43:00,74.8,56.5,29.93,SE,142,0.0,4.0,53,0.00,,,0.00,meteohub,2013-08-21 06:43:00,
2013-08-21 01:48:00,74.8,56.5,29.94,SE,142,0.0,4.0,53,0.00,,,0.00,meteohub,2013-08-21 06:48:00,
2013-08-21 01:53:00,74.8,56.5,29.93,SE,142,0.0,0.0,53,0.00,,,0.00,meteohub,2013-08-21 06:53:00,
2013-08-21 01:58:00,74.8,56.5,29.94,SE,142,0.0,0.0,53,0.00,,,0.00,meteohub,2013-08-21 06:58:00,
2013-08-21 02:03:00,74.7,56.8,29.94,SE,142,0.0,4.0,54,0.00,,,0.00,meteohub,2013-08-21 07:03:00,
2013-08-21 02:08:00,74.5,56.7,29.94,SE,142,0.0,4.0,54,0.00,,,0.00,meteohub,2013-08-21 07:08:00,
2013-08-21 02:13:00,74.1,56.8,29.94,SE,142,0.0,0.0,55,0.00,,,0.00,meteohub,2013-08-21 07:13:00,
2013-08-21 02:18:00,73.9,57.2,29.94,SE,142,0.0,0.0,56,0.00,,,0.00,meteohub,2013-08-21 07:18:00,
2013-08-21 02:23:00,73.8,57.6,29.94,SE,142,0.0,0.0,57,0.00,,,0.00,meteohub,2013-08-21 07:23:00,
2013-08-21 02:28:00,73.6,57.4,29.94,SE,142,0.0,2.0,57,0.00,,,0.00,meteohub,2013-08-21 07:28:00,
2013-08-21 02:33:00,73.6,57.9,29.94,SE,142,0.0,2.0,58,0.00,,,0.00,meteohub,2013-08-21 07:33:00,
2013-08-21 02:38:00,73.6,57.9,29.94,SE,142,0.0,0.0,58,0.00,,,0.00,meteohub,2013-08-21 07:38:00,
2013-08-21 02:43:00,73.2,57.6,29.94,SE,142,0.0,0.0,58,0.00,,,0.00,meteohub,2013-08-21 07:43:00,
2013-08-21 02:48:00,73.2,58.1,29.94,SE,142,0.0,0.0,59,0.00,,,0.00,meteohub,2013-08-21 07:48:00,
2013-08-21 02:53:00,73.0,58.3,29.94,SE,142,0.0,0.0,60,0.00,,,0.00,meteohub,2013-08-21 07:53:00,
2013-08-21 02:58:00,73.0,58.3,29.94,SE,142,0.0,0.0,60,0.00,,,0.00,meteohub,2013-08-21 07:58:00,
2013-08-21 03:03:00,72.9,58.6,29.94,SE,142,0.0,0.0,61,0.00,,,0.00,meteohub,2013-08-21 08:03:00,
2013-08-21 03:08:00,72.7,58.5,29.94,SE,142,0.0,0.0,61,0.00,,,0.00,meteohub,2013-08-21 08:08:00,
2013-08-21 03:13:00,72.7,58.8,29.94,SE,142,0.0,0.0,62,0.00,,,0.00,meteohub,2013-08-21 08:13:00,
2013-08-21 03:18:00,72.3,58.6,29.94,SE,142,0.0,0.0,62,0.00,,,0.00,meteohub,2013-08-21 08:18:00,
2013-08-21 03:23:00,72.3,58.6,29.94,SE,142,0.0,0.0,62,0.00,,,0.00,meteohub,2013-08-21 08:23:00,
2013-08-21 03:28:00,72.1,58.8,29.94,SE,142,0.0,0.0,63,0.00,,,0.00,meteohub,2013-08-21 08:28:00,
2013-08-21 03:33:00,72.0,58.6,29.94,SE,142,0.0,0.0,63,0.00,,,0.00,meteohub,2013-08-21 08:33:00,
2013-08-21 03:38:00,72.0,59.2,29.94,SE,142,0.0,0.0,64,0.00,,,0.00,meteohub,2013-08-21 08:38:00,
2013-08-21 03:43:00,72.0,59.2,29.94,SE,142,0.0,0.0,64,0.00,,,0.00,meteohub,2013-08-21 08:43:00,
2013-08-21 03:48:00,72.0,59.5,29.94,SE,142,0.0,0.0,65,0.00,,,0.00,meteohub,2013-08-21 08:48:00,
2013-08-21 03:53:00,72.0,59.5,29.94,SE,142,0.0,0.0,65,0.00,,,0.00,meteohub,2013-08-21 08:53:00,
2013-08-21 03:58:00,71.8,59.4,29.94,SE,142,0.0,0.0,65,0.00,,,0.00,meteohub,2013-08-21 08:58:00,
2013-08-21 04:03:00,71.8,59.7,29.94,SE,142,0.0,0.0,66,0.00,,,0.00,meteohub,2013-08-21 09:03:00,
2013-08-21 04:08:00,71.6,59.7,29.94,SE,142,0.0,0.0,66,0.00,,,0.00,meteohub,2013-08-21 09:08:00,
2013-08-21 04:13:00,71.6,60.1,29.94,SE,142,0.0,0.0,67,0.00,,,0.00,meteohub,2013-08-21 09:13:00,
2013-08-21 04:18:00,71.4,59.9,29.94,SE,142,0.0,0.0,67,0.00,,,0.00,meteohub,2013-08-21 09:18:00,
2013-08-21 04:23:00,71.4,59.9,29.94,SE,142,0.0,0.0,67,0.00,,,0.00,meteohub,2013-08-21 09:23:00,
2013-08-21 04:28:00,71.2,60.1,29.94,SE,142,0.0,0.0,68,0.00,,,0.00,meteohub,2013-08-21 09:28:00,
2013-08-21 04:33:00,71.1,59.9,29.94,SE,142,0.0,0.0,68,0.00,,,0.00,meteohub,2013-08-21 09:33:00,
2013-08-21 04:38:00,70.9,60.3,29.94,SE,142,0.0,0.0,69,0.00,,,0.00,meteohub,2013-08-21 09:38:00,
2013-08-21 04:43:00,70.5,59.9,29.94,SE,142,0.0,0.0,69,0.00,,,0.00,meteohub,2013-08-21 09:43:00,
2013-08-21 04:48:00,70.3,60.1,29.94,SE,142,0.0,0.0,70,0.00,,,0.00,meteohub,2013-08-21 09:48:00,
2013-08-21 04:53:00,70.2,60.3,29.95,SE,142,0.0,0.0,71,0.00,,,0.00,meteohub,2013-08-21 09:53:00,
2013-08-21 04:58:00,70.0,60.1,29.94,SE,142,0.0,0.0,71,0.00,,,0.00,meteohub,2013-08-21 09:58:00,
2013-08-21 05:03:00,70.0,60.6,29.95,SE,142,0.0,0.0,72,0.00,,,0.00,meteohub,2013-08-21 10:03:00,
2013-08-21 05:08:00,70.0,60.6,29.94,SE,142,0.0,0.0,72,0.00,,,0.00,meteohub,2013-08-21 10:08:00,
2013-08-21 05:13:00,70.0,61.0,29.94,SE,142,0.0,0.0,73,0.00,,,0.00,meteohub,2013-08-21 10:13:00,
2013-08-21 05:18:00,70.0,61.0,29.95,SE,142,0.0,0.0,73,0.00,,,0.00,meteohub,2013-08-21 10:18:00,
2013-08-21 05:23:00,70.0,61.0,29.95,SE,142,0.0,0.0,73,0.00,,,0.00,meteohub,2013-08-21 10:23:00,
2013-08-21 05:28:00,69.8,61.2,29.95,SE,142,0.0,0.0,74,0.00,,,0.00,meteohub,2013-08-21 10:28:00,
2013-08-21 05:33:00,69.8,61.2,29.95,SE,142,0.0,0.0,74,0.00,,,0.00,meteohub,2013-08-21 10:33:00,
2013-08-21 05:38:00,69.6,61.0,29.95,SE,142,0.0,0.0,74,0.00,,,0.00,meteohub,2013-08-21 10:38:00,
2013-08-21 05:43:00,69.6,61.0,29.95,SE,142,0.0,0.0,74,0.00,,,0.00,meteohub,2013-08-21 10:43:00,
2013-08-21 05:49:00,69.6,61.3,29.95,SE,142,0.0,0.0,75,0.00,,,0.00,meteohub,2013-08-21 10:49:00,
2013-08-21 05:54:00,69.4,61.2,29.95,SE,142,0.0,0.0,75,0.00,,,0.00,meteohub,2013-08-21 10:54:00,
2013-08-21 05:59:00,69.4,61.5,29.95,SE,142,0.0,0.0,76,0.00,,,0.00,meteohub,2013-08-21 10:59:00,
2013-08-21 06:04:00,69.4,61.5,29.95,SE,142,0.0,0.0,76,0.00,,,0.00,meteohub,2013-08-21 11:04:00,
2013-08-21 06:09:00,69.3,61.7,29.96,SE,142,0.0,0.0,77,0.00,,,0.00,meteohub,2013-08-21 11:09:00,
2013-08-21 06:14:00,69.3,61.7,29.96,SE,142,0.0,0.0,77,0.00,,,0.00,meteohub,2013-08-21 11:14:00,
2013-08-21 06:19:00,69.3,62.1,29.96,SE,142,0.0,0.0,78,0.00,,,0.00,meteohub,2013-08-21 11:19:00,
2013-08-21 06:24:00,69.3,62.1,29.96,SE,142,0.0,0.0,78,0.00,,,0.00,meteohub,2013-08-21 11:24:00,
2013-08-21 06:29:00,69.3,62.1,29.96,SE,142,0.0,0.0,78,0.00,,,0.00,meteohub,2013-08-21 11:29:00,
2013-08-21 06:34:00,69.3,62.4,29.96,SE,142,0.0,0.0,79,0.00,,,0.00,meteohub,2013-08-21 11:34:00,
2013-08-21 06:39:00,69.3,62.4,29.96,SE,142,0.0,0.0,79,0.00,,,0.00,meteohub,2013-08-21 11:39:00,
2013-08-21 06:44:00,69.3,62.4,29.97,SE,142,0.0,0.0,79,0.00,,,0.00,meteohub,2013-08-21 11:44:00,
2013-08-21 06:49:00,69.3,62.4,29.97,SE,142,0.0,0.0,79,0.00,,,0.00,meteohub,2013-08-21 11:49:00,
2013-08-21 06:54:00,69.3,62.4,29.97,SE,142,0.0,0.0,79,0.00,,,0.00,meteohub,2013-08-21 11:54:00,
2013-08-21 06:59:00,69.1,62.6,29.97,SE,142,0.0,0.0,80,0.00,,,0.00,meteohub,2013-08-21 11:59:00,
2013-08-21 07:04:00,69.1,62.6,29.97,SE,142,0.0,0.0,80,0.00,,,0.00,meteohub,2013-08-21 12:04:00,
2013-08-21 07:09:00,69.1,62.6,29.97,SE,142,0.0,0.0,80,0.00,,,0.00,meteohub,2013-08-21 12:09:00,
2013-08-21 07:14:00,68.9,62.8,29.98,SE,142,0.0,0.0,81,0.00,,,0.00,meteohub,2013-08-21 12:14:00,
2013-08-21 07:19:00,69.1,63.0,29.98,SE,142,0.0,0.0,81,0.00,,,0.00,meteohub,2013-08-21 12:19:00,
2013-08-21 07:24:00,69.1,63.0,29.98,SE,142,0.0,0.0,81,0.00,,,0.00,meteohub,2013-08-21 12:24:00,
2013-08-21 07:29:00,69.3,63.1,29.98,SE,142,0.0,0.0,81,0.00,,,0.00,meteohub,2013-08-21 12:29:00,
2013-08-21 07:34:00,69.4,63.3,29.98,SE,142,0.0,0.0,81,0.00,,,0.00,meteohub,2013-08-21 12:34:00,
2013-08-21 07:39:00,69.8,63.3,29.98,SE,142,0.0,0.0,80,0.00,,,0.00,meteohub,2013-08-21 12:39:00,
2013-08-21 07:44:00,70.2,63.3,29.98,SE,142,0.0,0.0,79,0.00,,,0.00,meteohub,2013-08-21 12:44:00,
2013-08-21 07:49:00,70.3,63.5,29.98,SE,142,0.0,0.0,79,0.00,,,0.00,meteohub,2013-08-21 12:49:00,
2013-08-21 07:54:00,70.5,63.7,29.99,SE,142,0.0,0.0,79,0.00,,,0.00,meteohub,2013-08-21 12:54:00,
2013-08-21 07:59:00,71.1,63.9,29.99,SE,142,0.0,0.0,78,0.00,,,0.00,meteohub,2013-08-21 12:59:00,
2013-08-21 08:04:00,71.6,64.0,29.99,SE,142,0.0,0.0,77,0.00,,,0.00,meteohub,2013-08-21 13:04:00,
2013-08-21 08:09:00,72.1,64.2,29.99,SE,142,0.0,0.0,76,0.00,,,0.00,meteohub,2013-08-21 13:09:00,
2013-08-21 08:14:00,72.9,64.4,29.99,SE,142,0.0,0.0,75,0.00,,,0.00,meteohub,2013-08-21 13:14:00,
2013-08-21 08:19:00,73.6,64.8,29.99,SE,142,0.0,0.0,74,0.00,,,0.00,meteohub,2013-08-21 13:19:00,
2013-08-21 08:24:00,74.3,64.8,29.99,SE,142,0.0,0.0,72,0.00,,,0.00,meteohub,2013-08-21 13:24:00,
2013-08-21 08:29:00,74.8,64.8,29.99,SE,142,0.0,0.0,71,0.00,,,0.00,meteohub,2013-08-21 13:29:00,
2013-08-21 08:34:00,75.2,65.1,29.99,SE,142,0.0,0.0,71,0.00,,,0.00,meteohub,2013-08-21 13:34:00,
2013-08-21 08:39:00,75.6,65.1,30.00,SE,142,0.0,0.0,70,0.00,,,0.00,meteohub,2013-08-21 13:39:00,
2013-08-21 08:44:00,76.1,65.7,30.00,SE,142,0.0,0.0,70,0.00,,,0.00,meteohub,2013-08-21 13:44:00,
2013-08-21 08:49:00,76.8,65.8,30.00,SE,142,0.0,0.0,69,0.00,,,0.00,meteohub,2013-08-21 13:49:00,
2013-08-21 08:54:00,77.7,66.4,30.00,SE,142,0.0,0.0,68,0.00,,,0.00,meteohub,2013-08-21 13:54:00,
2013-08-21 08:59:00,78.3,66.4,30.00,SE,142,0.0,0.0,67,0.00,,,0.00,meteohub,2013-08-21 13:59:00,
2013-08-21 09:04:00,78.8,66.6,30.00,SE,142,0.0,0.0,66,0.00,,,0.00,meteohub,2013-08-21 14:04:00,
2013-08-21 09:09:00,79.0,66.2,30.00,SE,142,0.0,0.0,65,0.00,,,0.00,meteohub,2013-08-21 14:09:00,
2013-08-21 09:14:00,79.2,66.4,29.99,SSW,205,1.0,5.0,65,0.00,,,0.00,meteohub,2013-08-21 14:14:00,
2013-08-21 09:19:00,79.0,66.2,30.00,SW,229,3.0,5.0,65,0.00,,,0.00,meteohub,2013-08-21 14:19:00,
2013-08-21 09:24:00,79.0,66.6,30.00,SW,229,0.0,5.0,66,0.00,,,0.00,meteohub,2013-08-21 14:24:00,
2013-08-21 09:29:00,79.2,66.4,30.00,SW,233,0.0,5.0,65,0.00,,,0.00,meteohub,2013-08-21 14:29:00,
2013-08-21 09:34:00,79.5,66.2,30.00,SW,227,0.0,6.0,64,0.00,,,0.00,meteohub,2013-08-21 14:34:00,
2013-08-21 09:39:00,79.7,66.4,30.00,SW,227,0.0,6.0,64,0.00,,,0.00,meteohub,2013-08-21 14:39:00,
2013-08-21 09:44:00,80.1,66.7,30.00,WSW,239,3.0,6.0,64,0.00,,,0.00,meteohub,2013-08-21 14:44:00,
2013-08-21 09:50:00,80.2,66.9,30.00,SW,232,4.0,6.0,64,0.00,,,0.00,meteohub,2013-08-21 14:50:00,
2013-08-21 09:55:00,80.1,66.7,30.00,SW,221,1.0,7.0,64,0.00,,,0.00,meteohub,2013-08-21 14:55:00,
2013-08-21 10:00:00,80.1,66.7,30.00,SW,231,1.0,7.0,64,0.00,,,0.00,meteohub,2013-08-21 15:00:00,
2013-08-21 10:05:00,80.2,67.5,30.00,WSW,244,8.0,8.0,65,0.00,,,0.00,meteohub,2013-08-21 15:05:00,
2013-08-21 10:10:00,80.2,67.5,30.00,WSW,244,8.0,8.0,65,0.00,,,0.00,meteohub,2013-08-21 15:10:00,
2013-08-21 10:15:00,80.4,67.1,30.00,West,264,5.0,11.0,64,0.00,,,0.00,meteohub,2013-08-21 15:15:00,
2013-08-21 10:20:00,80.4,67.1,30.00,SW,215,3.0,11.0,64,0.00,,,0.00,meteohub,2013-08-21 15:20:00,
2013-08-21 10:25:00,80.8,67.5,30.00,SW,226,4.0,11.0,64,0.00,,,0.00,meteohub,2013-08-21 15:25:00,
2013-08-21 10:30:00,81.0,67.1,30.00,SW,228,5.0,11.0,63,0.00,,,0.00,meteohub,2013-08-21 15:30:00,
2013-08-21 10:35:00,81.0,67.6,30.00,SW,232,2.0,11.0,64,0.00,,,0.00,meteohub,2013-08-21 15:35:00,
2013-08-21 10:40:00,81.1,67.3,30.00,SW,232,6.0,11.0,63,0.00,,,0.00,meteohub,2013-08-21 15:40:00,
2013-08-21 10:45:00,81.1,67.3,30.00,SW,230,0.0,11.0,63,0.00,,,0.00,meteohub,2013-08-21 15:45:00,
2013-08-21 10:50:00,81.7,67.5,30.00,WSW,254,6.0,11.0,62,0.00,,,0.00,meteohub,2013-08-21 15:50:00,
2013-08-21 10:55:00,82.0,67.6,30.00,WSW,250,0.0,11.0,62,0.00,,,0.00,meteohub,2013-08-21 15:55:00,
2013-08-21 11:00:00,82.8,68.0,30.00,WSW,248,0.0,11.0,61,0.00,,,0.00,meteohub,2013-08-21 16:00:00,
2013-08-21 11:05:00,83.7,68.4,30.00,West,259,6.0,11.0,60,0.00,,,0.00,meteohub,2013-08-21 16:05:00,
2013-08-21 11:10:00,83.8,67.5,30.00,West,259,0.0,11.0,58,0.00,,,0.00,meteohub,2013-08-21 16:10:00,
2013-08-21 11:15:00,84.4,68.0,30.00,SSW,200,0.0,10.0,58,0.00,,,0.00,meteohub,2013-08-21 16:15:00,
2013-08-21 11:20:00,84.9,67.5,30.00,SSW,204,2.0,10.0,56,0.00,,,0.00,meteohub,2013-08-21 16:20:00,
2013-08-21 11:25:00,85.5,67.5,30.00,South,178,0.0,10.0,55,0.00,,,0.00,meteohub,2013-08-21 16:25:00,
2013-08-21 11:30:00,85.8,67.3,30.00,WSW,257,4.0,7.0,54,0.00,,,0.00,meteohub,2013-08-21 16:30:00,
2013-08-21 11:35:00,86.2,67.6,30.00,West,277,0.0,7.0,54,0.00,,,0.00,meteohub,2013-08-21 16:35:00,
2013-08-21 11:40:00,86.7,67.5,30.01,SE,140,0.0,7.0,53,0.00,,,0.00,meteohub,2013-08-21 16:40:00,
2013-08-21 11:45:00,87.3,66.9,30.00,SW,221,0.0,7.0,51,0.00,,,0.00,meteohub,2013-08-21 16:45:00,
2013-08-21 11:50:00,87.1,65.7,30.00,SW,233,0.0,9.0,49,0.00,,,0.00,meteohub,2013-08-21 16:50:00,
2013-08-21 11:55:00,86.5,66.2,30.00,SW,226,0.0,9.0,51,0.00,,,0.00,meteohub,2013-08-21 16:55:00,
2013-08-21 12:00:00,86.5,66.7,29.99,SW,225,0.0,9.0,52,0.00,,,0.00,meteohub,2013-08-21 17:00:00,
2013-08-21 12:05:00,86.7,67.5,30.00,SSW,210,2.0,9.0,53,0.00,,,0.00,meteohub,2013-08-21 17:05:00,
2013-08-21 12:10:00,87.1,67.3,29.99,South,175,5.0,9.0,52,0.00,,,0.00,meteohub,2013-08-21 17:10:00,
2013-08-21 12:15:00,86.7,66.4,29.99,SW,234,10.0,10.0,51,0.00,,,0.00,meteohub,2013-08-21 17:15:00,
2013-08-21 12:20:00,85.8,66.2,29.99,WSW,241,6.0,6.0,52,0.00,,,0.00,meteohub,2013-08-21 17:20:00,
2013-08-21 12:25:00,85.5,66.4,29.99,SW,216,4.0,6.0,53,0.00,,,0.00,meteohub,2013-08-21 17:25:00,
2013-08-21 12:30:00,85.3,66.7,29.99,SW,221,2.0,6.0,54,0.00,,,0.00,meteohub,2013-08-21 17:30:00,
2013-08-21 12:35:00,85.1,67.1,29.99,SSW,205,0.0,8.0,55,0.00,,,0.00,meteohub,2013-08-21 17:35:00,
2013-08-21 12:40:00,85.5,66.9,29.99,SSW,204,0.0,8.0,54,0.00,,,0.00,meteohub,2013-08-21 17:40:00,
2013-08-21 12:45:00,85.8,66.7,29.99,West,279,0.0,8.0,53,0.00,,,0.00,meteohub,2013-08-21 17:45:00,
2013-08-21 12:50:00,86.0,65.8,29.99,SSW,192,0.0,8.0,51,0.00,,,0.00,meteohub,2013-08-21 17:50:00,
2013-08-21 12:55:00,86.5,66.2,29.99,SW,232,3.0,6.0,51,0.00,,,0.00,meteohub,2013-08-21 17:55:00,
2013-08-21 13:00:00,87.3,65.1,29.99,SSE,157,0.0,6.0,48,0.00,,,0.00,meteohub,2013-08-21 18:00:00,
2013-08-21 13:05:00,87.8,63.9,29.99,SSE,167,0.0,6.0,45,0.00,,,0.00,meteohub,2013-08-21 18:05:00,
2013-08-21 13:10:00,88.3,64.2,29.98,SE,130,0.0,6.0,45,0.00,,,0.00,meteohub,2013-08-21 18:10:00,
2013-08-21 13:16:00,88.9,63.5,29.98,SE,146,0.0,6.0,43,0.00,,,0.00,meteohub,2013-08-21 18:16:00,
2013-08-21 13:21:00,89.2,63.1,29.98,SSE,152,0.0,6.0,42,0.00,,,0.00,meteohub,2013-08-21 18:21:00,
2013-08-21 13:26:00,89.4,61.9,29.98,ENE,74,1.0,6.0,40,0.00,,,0.00,meteohub,2013-08-21 18:26:00,
2013-08-21 13:31:00,89.2,61.7,29.98,ESE,122,0.0,7.0,40,0.00,,,0.00,meteohub,2013-08-21 18:31:00,
2013-08-21 13:36:00,88.9,61.5,29.98,NNE,32,0.0,7.0,40,0.00,,,0.00,meteohub,2013-08-21 18:36:00,
2013-08-21 13:41:00,88.5,60.4,29.97,NW,317,0.0,7.0,39,0.00,,,0.00,meteohub,2013-08-21 18:41:00,
2013-08-21 13:46:00,88.9,61.5,29.97,NW,316,0.0,7.0,40,0.00,,,0.00,meteohub,2013-08-21 18:46:00,
2013-08-21 13:51:00,89.1,63.0,29.97,NNW,327,0.0,4.0,42,0.00,,,0.00,meteohub,2013-08-21 18:51:00,
2013-08-21 13:56:00,89.4,61.9,29.97,NE,38,0.0,4.0,40,0.00,,,0.00,meteohub,2013-08-21 18:56:00,
2013-08-21 14:01:00,89.2,63.9,29.97,ENE,58,0.0,4.0,43,0.00,,,0.00,meteohub,2013-08-21 19:01:00,
2013-08-21 14:06:00,89.2,63.1,29.97,ESE,113,0.0,4.0,42,0.00,,,0.00,meteohub,2013-08-21 19:06:00,
2013-08-21 14:11:00,89.2,63.1,29.96,ESE,113,0.0,4.0,42,0.00,,,0.00,meteohub,2013-08-21 19:11:00,
2013-08-21 14:16:00,89.4,63.3,29.96,SSW,205,0.0,4.0,42,0.00,,,0.00,meteohub,2013-08-21 19:16:00,
2013-08-21 14:21:00,89.8,63.7,29.96,WSW,238,3.0,4.0,42,0.00,,,0.00,meteohub,2013-08-21 19:21:00,
2013-08-21 14:26:00,90.0,63.9,29.96,WSW,244,0.0,4.0,42,0.00,,,0.00,meteohub,2013-08-21 19:26:00,
2013-08-21 14:31:00,90.7,64.4,29.96,SE,145,1.0,6.0,42,0.00,,,0.00,meteohub,2013-08-21 19:31:00,
2013-08-21 14:36:00,91.4,63.7,29.96,SW,223,0.0,6.0,40,0.00,,,0.00,meteohub,2013-08-21 19:36:00,
2013-08-21 14:41:00,91.9,64.9,29.95,SSE,153,2.0,7.0,41,0.00,,,0.00,meteohub,2013-08-21 19:41:00,
2013-08-21 14:46:00,91.8,64.8,29.95,ESE,107,1.0,7.0,41,0.00,,,0.00,meteohub,2013-08-21 19:46:00,
2013-08-21 14:51:00,90.9,64.6,29.95,South,190,3.0,9.0,42,0.00,,,0.00,meteohub,2013-08-21 19:51:00,
2013-08-21 14:56:00,90.7,64.4,29.95,SE,124,7.0,9.0,42,0.00,,,0.00,meteohub,2013-08-21 19:56:00,
2013-08-21 15:01:00,90.9,64.6,29.94,SE,132,5.0,13.0,42,0.00,,,0.00,meteohub,2013-08-21 20:01:00,
2013-08-21 15:06:00,91.2,63.5,29.94,East,96,0.0,13.0,40,0.00,,,0.00,meteohub,2013-08-21 20:06:00,
2013-08-21 15:11:00,91.8,64.0,29.94,East,96,0.0,8.0,40,0.00,,,0.00,meteohub,2013-08-21 20:11:00,
2013-08-21 15:16:00,91.6,63.9,29.94,ENE,57,5.0,8.0,40,0.00,,,0.00,meteohub,2013-08-21 20:16:00,
2013-08-21 15:21:00,91.0,63.3,29.94,SSE,155,0.0,8.0,40,0.00,,,0.00,meteohub,2013-08-21 20:21:00,
2013-08-21 15:26:00,91.2,63.5,29.93,SSE,159,4.0,8.0,40,0.00,,,0.00,meteohub,2013-08-21 20:26:00,
2013-08-21 15:31:00,91.6,63.1,29.93,SE,136,11.0,11.0,39,0.00,,,0.00,meteohub,2013-08-21 20:31:00,
2013-08-21 15:36:00,91.2,62.8,29.93,SE,132,4.0,14.0,39,0.00,,,0.00,meteohub,2013-08-21 20:36:00,
2013-08-21 15:41:00,91.2,62.8,29.93,SE,142,10.0,14.0,39,0.00,,,0.00,meteohub,2013-08-21 20:41:00,
2013-08-21 15:47:00,91.8,62.6,29.92,ESE,121,0.0,14.0,38,0.00,,,0.00,meteohub,2013-08-21 20:47:00,
2013-08-21 15:52:00,92.1,62.8,29.92,SSE,153,0.0,14.0,38,0.00,,,0.00,meteohub,2013-08-21 20:52:00,
2013-08-21 15:57:00,92.7,62.6,29.92,SE,140,0.0,11.0,37,0.00,,,0.00,meteohub,2013-08-21 20:57:00,
2013-08-21 16:02:00,92.5,62.4,29.92,ESE,112,0.0,11.0,37,0.00,,,0.00,meteohub,2013-08-21 21:02:00,
2013-08-21 16:07:00,91.9,61.9,29.92,East,99,0.0,11.0,37,0.00,,,0.00,meteohub,2013-08-21 21:07:00,
2013-08-21 16:12:00,91.9,62.8,29.91,SSE,160,0.0,10.0,38,0.00,,,0.00,meteohub,2013-08-21 21:12:00,
2013-08-21 16:17:00,92.1,62.8,29.91,South,188,1.0,10.0,38,0.00,,,0.00,meteohub,2013-08-21 21:17:00,
2013-08-21 16:22:00,92.5,62.4,29.91,ESE,121,0.0,11.0,37,0.00,,,0.00,meteohub,2013-08-21 21:22:00,
2013-08-21 16:27:00,92.8,62.8,29.91,SSE,167,2.0,11.0,37,0.00,,,0.00,meteohub,2013-08-21 21:27:00,
2013-08-21 16:32:00,92.8,62.8,29.91,South,181,0.0,14.0,37,0.00,,,0.00,meteohub,2013-08-21 21:32:00,
2013-08-21 16:37:00,92.7,62.6,29.91,SSE,151,0.0,14.0,37,0.00,,,0.00,meteohub,2013-08-21 21:37:00,
2013-08-21 16:42:00,92.1,62.1,29.91,SSE,164,0.0,14.0,37,0.00,,,0.00,meteohub,2013-08-21 21:42:00,
2013-08-21 16:47:00,91.6,62.4,29.91,SE,138,5.0,14.0,38,0.00,,,0.00,meteohub,2013-08-21 21:47:00,
2013-08-21 16:52:00,91.2,62.1,29.91,SSE,163,0.0,9.0,38,0.00,,,0.00,meteohub,2013-08-21 21:52:00,
2013-08-21 16:57:00,91.2,62.1,29.91,SSE,152,0.0,9.0,38,0.00,,,0.00,meteohub,2013-08-21 21:57:00,
2013-08-21 17:02:00,91.4,61.5,29.91,SW,221,2.0,8.0,37,0.00,,,0.00,meteohub,2013-08-21 22:02:00,
2013-08-21 17:07:00,91.8,61.0,29.90,SSW,206,0.0,8.0,36,0.00,,,0.00,meteohub,2013-08-21 22:07:00,
2013-08-21 17:12:00,92.1,61.3,29.90,SSW,206,0.0,12.0,36,0.00,,,0.00,meteohub,2013-08-21 22:12:00,
2013-08-21 17:17:00,92.7,61.0,29.90,South,189,3.0,12.0,35,0.00,,,0.00,meteohub,2013-08-21 22:17:00,
2013-08-21 17:22:00,93.0,61.3,29.90,SW,231,1.0,4.0,35,0.00,,,0.00,meteohub,2013-08-21 22:22:00,
2013-08-21 17:27:00,93.4,60.8,29.90,SW,229,0.0,4.0,34,0.00,,,0.00,meteohub,2013-08-21 22:27:00,
2013-08-21 17:32:00,93.4,61.7,29.90,SW,229,1.0,8.0,35,0.00,,,0.00,meteohub,2013-08-21 22:32:00,
2013-08-21 17:37:00,93.7,61.2,29.90,SW,234,3.0,8.0,34,0.00,,,0.00,meteohub,2013-08-21 22:37:00,
2013-08-21 17:42:00,93.9,60.4,29.89,WSW,245,1.0,8.0,33,0.00,,,0.00,meteohub,2013-08-21 22:42:00,
2013-08-21 17:47:00,94.3,61.5,29.89,SSW,207,0.0,8.0,34,0.00,,,0.00,meteohub,2013-08-21 22:47:00,
2013-08-21 17:52:00,94.6,61.9,29.89,SSW,208,2.0,6.0,34,0.00,,,0.00,meteohub,2013-08-21 22:52:00,
2013-08-21 17:57:00,94.8,60.4,29.89,SSW,204,2.0,6.0,32,0.00,,,0.00,meteohub,2013-08-21 22:57:00,
2013-08-21 18:02:00,95.2,60.6,29.89,SW,215,1.0,5.0,32,0.00,,,0.00,meteohub,2013-08-21 23:02:00,
2013-08-21 18:07:00,95.2,61.5,29.89,SW,216,3.0,5.0,33,0.00,,,0.00,meteohub,2013-08-21 23:07:00,
2013-08-21 18:12:00,94.8,61.2,29.89,SW,235,0.0,5.0,33,0.00,,,0.00,meteohub,2013-08-21 23:12:00,
2013-08-21 18:17:00,94.6,61.0,29.88,SW,236,0.0,5.0,33,0.00,,,0.00,meteohub,2013-08-21 23:17:00,
2013-08-21 18:22:00,94.5,60.1,29.88,South,182,4.0,5.0,32,0.00,,,0.00,meteohub,2013-08-21 23:22:00,
2013-08-21 18:27:00,94.5,61.0,29.88,SE,133,0.0,5.0,33,0.00,,,0.00,meteohub,2013-08-21 23:27:00,
2013-08-21 18:32:00,94.5,61.7,29.88,East,79,4.0,6.0,34,0.00,,,0.00,meteohub,2013-08-21 23:32:00,
2013-08-21 18:37:00,93.7,61.2,29.88,SE,142,2.0,6.0,34,0.00,,,0.00,meteohub,2013-08-21 23:37:00,
2013-08-21 18:42:00,93.4,60.8,29.88,SE,134,2.0,6.0,34,0.00,,,0.00,meteohub,2013-08-21 23:42:00,
2013-08-21 18:47:00,92.8,60.3,29.88,East,80,1.0,6.0,34,0.00,,,0.00,meteohub,2013-08-21 23:47:00,
2013-08-21 18:52:00,92.8,61.2,29.88,East,82,3.0,7.0,35,0.00,,,0.00,meteohub,2013-08-21 23:52:00,
2013-08-21 18:57:00,92.5,60.1,29.88,SE,133,0.0,7.0,34,0.00,,,0.00,meteohub,2013-08-21 23:57:00,
2013-08-21 19:02:00,92.5,60.8,29.88,ESE,113,4.0,5.0,35,0.00,,,0.00,meteohub,2013-08-22 00:02:00,
2013-08-21 19:07:00,92.3,60.6,29.88,NE,43,3.0,5.0,35,0.00,,,0.00,meteohub,2013-08-22 00:07:00,
2013-08-21 19:12:00,91.9,60.4,29.88,ENE,58,3.0,5.0,35,0.00,,,0.00,meteohub,2013-08-22 00:12:00,
2013-08-21 19:17:00,91.6,60.8,29.88,ENE,58,0.0,5.0,36,0.00,,,0.00,meteohub,2013-08-22 00:17:00,
2013-08-21 19:22:00,91.6,60.1,29.88,SE,142,0.0,5.0,35,0.00,,,0.00,meteohub,2013-08-22 00:22:00,
2013-08-21 19:27:00,91.4,60.6,29.88,SSE,151,0.0,5.0,36,0.00,,,0.00,meteohub,2013-08-22 00:27:00,
2013-08-21 19:32:00,91.6,60.8,29.88,SSE,151,0.0,9.0,36,0.00,,,0.00,meteohub,2013-08-22 00:32:00,
2013-08-21 19:37:00,91.6,60.1,29.88,ESE,121,0.0,9.0,35,0.00,,,0.00,meteohub,2013-08-22 00:37:00,
2013-08-21 19:42:00,91.6,60.8,29.88,ESE,121,0.0,9.0,36,0.00,,,0.00,meteohub,2013-08-22 00:42:00,
2013-08-21 19:48:00,91.6,60.1,29.88,ESE,121,0.0,9.0,35,0.00,,,0.00,meteohub,2013-08-22 00:48:00,
2013-08-21 19:53:00,91.2,60.6,29.88,ESE,121,0.0,5.0,36,0.00,,,0.00,meteohub,2013-08-22 00:53:00,
2013-08-21 19:58:00,91.0,61.2,29.89,ESE,121,0.0,5.0,37,0.00,,,0.00,meteohub,2013-08-22 00:58:00,
2013-08-21 20:03:00,90.7,60.8,29.89,ESE,121,0.0,0.0,37,0.00,,,0.00,meteohub,2013-08-22 01:03:00,
2013-08-21 20:08:00,90.1,61.2,29.89,ESE,121,0.0,0.0,38,0.00,,,0.00,meteohub,2013-08-22 01:08:00,
2013-08-21 20:13:00,89.8,60.8,29.89,ESE,104,0.0,0.0,38,0.00,,,0.00,meteohub,2013-08-22 01:13:00,
2013-08-21 20:18:00,89.2,61.0,29.89,ESE,103,0.0,0.0,39,0.00,,,0.00,meteohub,2013-08-22 01:18:00,
2013-08-21 20:23:00,88.9,62.1,29.89,ESE,103,0.0,4.0,41,0.00,,,0.00,meteohub,2013-08-22 01:23:00,
2013-08-21 20:28:00,88.3,61.7,29.90,ESE,103,0.0,4.0,41,0.00,,,0.00,meteohub,2013-08-22 01:28:00,
2013-08-21 20:33:00,88.0,62.1,29.90,ESE,103,0.0,1.0,42,0.00,,,0.00,meteohub,2013-08-22 01:33:00,
2013-08-21 20:38:00,87.4,62.2,29.90,East,101,0.0,1.0,43,0.00,,,0.00,meteohub,2013-08-22 01:38:00,
2013-08-21 20:43:00,87.1,62.6,29.91,ESE,106,2.0,2.0,44,0.00,,,0.00,meteohub,2013-08-22 01:43:00,
2013-08-21 20:48:00,86.9,63.0,29.91,ESE,117,0.0,2.0,45,0.00,,,0.00,meteohub,2013-08-22 01:48:00,
2013-08-21 20:53:00,86.7,62.8,29.91,East,98,0.0,8.0,45,0.00,,,0.00,meteohub,2013-08-22 01:53:00,
2013-08-21 20:58:00,86.5,63.3,29.91,ESE,108,0.0,8.0,46,0.00,,,0.00,meteohub,2013-08-22 01:58:00,
2013-08-21 21:03:00,86.5,63.9,29.91,East,93,0.0,5.0,47,0.00,,,0.00,meteohub,2013-08-22 02:03:00,
2013-08-21 21:08:00,86.4,63.7,29.91,East,93,0.0,5.0,47,0.00,,,0.00,meteohub,2013-08-22 02:08:00,
2013-08-21 21:13:00,86.2,64.2,29.91,East,96,0.0,6.0,48,0.00,,,0.00,meteohub,2013-08-22 02:13:00,
2013-08-21 21:18:00,85.8,63.9,29.91,East,97,0.0,6.0,48,0.00,,,0.00,meteohub,2013-08-22 02:18:00,
2013-08-21 21:23:00,85.6,64.2,29.91,East,98,0.0,0.0,49,0.00,,,0.00,meteohub,2013-08-22 02:23:00,
2013-08-21 21:28:00,85.5,64.0,29.91,East,98,0.0,0.0,49,0.00,,,0.00,meteohub,2013-08-22 02:28:00,
2013-08-21 21:33:00,85.3,64.0,29.92,East,98,0.0,2.0,49,0.00,,,0.00,meteohub,2013-08-22 02:33:00,
2013-08-21 21:38:00,84.9,64.2,29.92,East,98,0.0,2.0,50,0.00,,,0.00,meteohub,2013-08-22 02:38:00,
2013-08-21 21:43:00,84.9,64.2,29.93,East,98,0.0,2.0,50,0.00,,,0.00,meteohub,2013-08-22 02:43:00,
2013-08-21 21:48:00,84.7,64.0,29.93,East,98,0.0,2.0,50,0.00,,,0.00,meteohub,2013-08-22 02:48:00,
2013-08-21 21:53:00,84.6,63.9,29.93,East,101,0.0,1.0,50,0.00,,,0.00,meteohub,2013-08-22 02:53:00,
2013-08-21 21:58:00,84.6,63.9,29.93,East,101,0.0,1.0,50,0.00,,,0.00,meteohub,2013-08-22 02:58:00,
2013-08-21 22:03:00,84.4,64.2,29.94,ESE,123,0.0,2.0,51,0.00,,,0.00,meteohub,2013-08-22 03:03:00,
2013-08-21 22:08:00,84.4,64.2,29.94,ESE,113,0.0,2.0,51,0.00,,,0.00,meteohub,2013-08-22 03:08:00,
2013-08-21 22:13:00,84.4,64.2,29.94,SE,128,0.0,5.0,51,0.00,,,0.00,meteohub,2013-08-22 03:13:00,
2013-08-21 22:18:00,84.4,64.2,29.94,SE,126,0.0,5.0,51,0.00,,,0.00,meteohub,2013-08-22 03:18:00,
2013-08-21 22:23:00,84.4,64.2,29.94,SE,126,0.0,5.0,51,0.00,,,0.00,meteohub,2013-08-22 03:23:00,
2013-08-21 22:28:00,84.4,64.2,29.94,SE,126,2.0,5.0,51,0.00,,,0.00,meteohub,2013-08-22 03:28:00,
2013-08-21 22:33:00,84.0,64.6,29.95,SE,128,13.0,13.0,52,0.00,,,0.00,meteohub,2013-08-22 03:33:00,
2013-08-21 22:38:00,84.4,64.8,29.95,ESE,123,6.0,6.0,52,0.00,,,0.00,meteohub,2013-08-22 03:38:00,
2013-08-21 22:43:00,84.4,64.8,29.95,SE,125,9.0,15.0,52,0.00,,,0.00,meteohub,2013-08-22 03:43:00,
2013-08-21 22:49:00,84.4,65.3,29.95,SSE,160,5.0,15.0,53,0.00,,,0.00,meteohub,2013-08-22 03:49:00,
2013-08-21 22:54:00,84.2,65.3,29.95,SE,125,0.0,15.0,53,0.00,,,0.00,meteohub,2013-08-22 03:54:00,
2013-08-21 22:59:00,84.0,65.7,29.96,SSE,155,6.0,14.0,54,0.00,,,0.00,meteohub,2013-08-22 03:59:00,
2013-08-21 23:01:00,84.0,65.7,29.96,SE,136,2.0,14.0,54,0.00,,,0.00,meteohub,2013-08-22 04:01:00,
2013-08-21 23:02:00,84.0,65.7,29.96,ESE,112,6.0,14.0,54,0.00,,,0.00,meteohub,2013-08-22 04:02:00,
2013-08-21 23:07:00,83.8,66.0,29.96,SSE,157,11.0,14.0,55,0.00,,,0.00,meteohub,2013-08-22 04:07:00,
2013-08-21 23:12:00,83.7,65.8,29.96,SSE,162,8.0,18.0,55,0.00,,,0.00,meteohub,2013-08-22 04:12:00,
2013-08-21 23:17:00,83.5,65.7,29.96,SSE,163,5.0,18.0,55,0.00,,,0.00,meteohub,2013-08-22 04:17:00,
2013-08-21 23:22:00,83.1,65.8,29.95,SSE,168,6.0,18.0,56,0.00,,,0.00,meteohub,2013-08-22 04:22:00,
2013-08-21 23:27:00,82.8,66.0,29.95,ESE,120,7.0,18.0,57,0.00,,,0.00,meteohub,2013-08-22 04:27:00,
2013-08-21 23:32:00,82.6,66.4,29.96,SE,136,1.0,16.0,58,0.00,,,0.00,meteohub,2013-08-22 04:32:00,
2013-08-21 23:37:00,82.2,66.0,29.96,SSE,147,0.0,16.0,58,0.00,,,0.00,meteohub,2013-08-22 04:37:00,
2013-08-21 23:42:00,82.0,66.4,29.96,South,179,2.0,14.0,59,0.00,,,0.00,meteohub,2013-08-22 04:42:00,
2013-08-21 23:47:00,81.9,66.2,29.96,SE,132,8.0,14.0,59,0.00,,,0.00,meteohub,2013-08-22 04:47:00,
2013-08-21 23:52:00,81.7,66.4,29.96,SSE,159,2.0,15.0,60,0.00,,,0.00,meteohub,2013-08-22 04:52:00,
2013-08-21 23:57:00,81.3,66.0,29.96,SSE,153,8.0,15.0,60,0.00,,,0.00,meteohub,2013-08-22 04:57:00,